User: anonymous   Login
Location: Theydon Bois
(51.6750°N, 0.1050°E)
Time: 01:18:23
(UTC+01:00)
Language:

Meteor 2-21 - Orbit

View from above orbital plane
View from above orbital plane
View from above satellite
View from above satellite

Ground track
Ground track

The orbit data is extracted from the following two-line orbital elements,

1 22782U 93055A   18226.96487662 +.00000008 +00000-0 -61681-5 0  9996
2 22782 082.5474 047.2798 0021479 324.8698 187.4827 13.83811379260035
Epoch (UTC): 14 August 2018 23:09:25
Eccentricity: 0.0021479
inclination: 82.5474°
perigee height: 934 km
apogee height: 966 km
right ascension of ascending node: 47.2798°
argument of perigee: 324.8698°
revolutions per day: 13.83811379
mean anomaly at epoch: 187.4827°
orbit number at epoch: 26003

The dashed part of the orbit path shows where the satellite is in the earth's shadow,  

DLR